sat.trackr.live / text

‹ back to catalog

STARLINK-4193

NORAD 52875 · 2022-062AX

PAYLOAD ACTIVE UNKNOWN

§ Identity

Operator
Country
US
Launch date
2022-06-17
Launch site
AFETR
Launch vehicle
Mass (kg)
RCS (m²)

Purposes: comms

External: N2YO · Heavens-Above · Gunter

§ Orbital elements

Epoch: 2026-09-19T13:53:36.103776Z

Period
93.85 min
Inclination
53.1582°
Eccentricity
0.0001473
Mean motion
15.34391186 rev/d
Perigee alt
461.7 km
Apogee alt
463.7 km
Semi-major
6,840.9 km
B*
3.7642e-5
RAAN
207.7196°
Arg perigee
93.0517°
Mean anomaly
267.0655°
Rev number
23,555

§ Raw data

STARLINK-41931 52875U 22062AX  26262.57889009  .00000895  00000+0  37642-4 0  99902 52875  53.1582 207.7196 0001473  93.0517 267.0655 15.34391186235557

JSON: /api/v1/satellites/52875 · /tle

For live sub-satellite position, see the globe view (requires WebGL).

§ Visibility from observer

Set your observer location to see the next 7 days of passes ≥ 10°. The values pass through the URL so the page stays shareable.

No JS? Fill the form by hand. The geolocation button needs JavaScript.